| time (UTC) | temp C | wind direction | speed KPH | gust KPH | rain 1hr cm | rain 24hr cm | rain mn cm | humidity % | barometer mb |
| 20260507144506 | 9 | 292 | 8.0 | 29.0 | 0.00 | 0.00 | 0.00 | 52 | 1016.5 |
| 20260507142507 | 8 | 315 | 16.1 | 25.7 | 0.00 | 0.00 | 0.00 | 52 | 1016.5 |
| 20260507142004 | 8 | 247 | 16.1 | 24.1 | 0.00 | 0.00 | 0.00 | 53 | 1016.8 |
| 20260507141507 | 8 | 292 | 12.9 | 27.4 | 0.00 | 0.00 | 0.00 | 53 | 1016.8 |
| 20260507140505 | 8 | 292 | 16.1 | 27.4 | 0.00 | 0.00 | 0.00 | 54 | 1016.5 |
| 20260507140002 | 8 | 315 | 8.0 | 24.1 | 0.00 | 0.00 | 0.00 | 56 | 1016.8 |
| 20260507135505 | 8 | 292 | 6.4 | 17.7 | 0.00 | 0.00 | 0.00 | 57 | 1016.8 |
| 20260507135002 | 8 | 292 | 8.0 | 16.1 | 0.00 | 0.00 | 0.00 | 58 | 1016.8 |
| 20260507133507 | 8 | 292 | 6.4 | 17.7 | 0.00 | 0.00 | 0.00 | 58 | 1016.8 |
| 20260507133004 | 8 | 292 | 9.7 | 17.7 | 0.00 | 0.00 | 0.00 | 59 | 1016.8 |
| 20260507132507 | 8 | 270 | 4.8 | 16.1 | 0.00 | 0.00 | 0.00 | 59 | 1016.8 |
| 20260507132003 | 8 | 270 | 6.4 | 16.1 | 0.00 | 0.00 | 0.00 | 59 | 1016.8 |
| 20260507131506 | 8 | 270 | 6.4 | 14.5 | 0.00 | 0.00 | 0.00 | 59 | 1016.8 |
| 20260507131001 | 8 | 292 | 6.4 | 14.5 | 0.00 | 0.00 | 0.00 | 59 | 1016.8 |
| 20260507130004 | 8 | 270 | 8.0 | 12.9 | 0.00 | 0.00 | 0.00 | 63 | 1016.8 |
| 20260507125506 | 8 | 292 | 1.6 | 11.3 | 0.00 | 0.00 | 0.00 | 64 | 1016.8 |
| 20260507124505 | 7 | 292 | 6.4 | 14.5 | 0.00 | 0.00 | 0.00 | 65 | 1016.8 |
| 20260507124007 | 7 | 292 | 4.8 | 14.5 | 0.00 | 0.00 | 0.00 | 66 | 1016.8 |
| 20260507123504 | 7 | 315 | 6.4 | 12.9 | 0.00 | 0.00 | 0.00 | 67 | 1016.8 |
| 20260507123007 | 7 | 337 | 6.4 | 12.9 | 0.00 | 0.00 | 0.00 | 68 | 1016.5 |
| 20260507122503 | 7 | 292 | 6.4 | 12.9 | 0.00 | 0.00 | 0.00 | 70 | 1016.5 |
| 20260507121507 | 6 | 292 | 4.8 | 12.9 | 0.00 | 0.00 | 0.00 | 73 | 1016.5 |
| 20260507121003 | 6 | 270 | 8.0 | 12.9 | 0.00 | 0.00 | 0.00 | 74 | 1016.5 |
| 20260507120513 | 6 | 292 | 3.2 | 9.7 | 0.00 | 0.00 | 0.00 | 75 | 1016.5 |
| 20260507120009 | 6 | 270 | 6.4 | 11.3 | 0.00 | 0.00 | 0.00 | 75 | 1016.8 |
| 20260507115005 | 5 | 270 | 8.0 | 11.3 | 0.00 | 0.00 | 0.00 | 76 | 1016.8 |
| 20260507114502 | 5 | 247 | 8.0 | 11.3 | 0.00 | 0.00 | 0.00 | 77 | 1016.5 |
| 20260507114005 | 5 | 270 | 6.4 | 11.3 | 0.00 | 0.00 | 0.00 | 78 | 1016.8 |
| 20260507113507 | 5 | 270 | 4.8 | 9.7 | 0.00 | 0.00 | 0.00 | 78 | 1016.5 |
| 20260507113004 | 5 | 270 | 6.4 | 9.7 | 0.00 | 0.00 | 0.00 | 79 | 1016.8 |
| 20260507112507 | 5 | 247 | 4.8 | 8.0 | 0.00 | 0.00 | 0.00 | 79 | 1016.8 |
| 20260507111506 | 5 | 270 | 4.8 | 9.7 | 0.00 | 0.00 | 0.00 | 79 | 1016.5 |
| 20260507111007 | 4 | 270 | 6.4 | 9.7 | 0.00 | 0.00 | 0.00 | 79 | 1016.5 |
| 20260507110504 | 4 | 270 | 6.4 | 9.7 | 0.00 | 0.00 | 0.00 | 79 | 1016.5 |
| 20260507110006 | 4 | 270 | 4.8 | 6.4 | 0.00 | 0.00 | 0.00 | 79 | 1016.5 |
| 20260507105003 | 4 | 270 | 4.8 | 6.4 | 0.00 | 0.00 | 0.00 | 79 | 1016.1 |
| 20260507104505 | 4 | 270 | 4.8 | 9.7 | 0.00 | 0.00 | 0.00 | 79 | 1016.1 |
| 20260507104006 | 4 | 270 | 4.8 | 9.7 | 0.00 | 0.00 | 0.00 | 79 | 1016.1 |
| 20260507103502 | 4 | 270 | 4.8 | 9.7 | 0.00 | 0.00 | 0.00 | 79 | 1016.1 |
| 20260507103005 | 4 | 247 | 4.8 | 9.7 | 0.00 | 0.00 | 0.00 | 79 | 1016.1 |
| 20260507102501 | 4 | 270 | 6.4 | 9.7 | 0.00 | 0.00 | 0.00 | 80 | 1015.8 |
| 20260507102006 | 4 | 270 | 4.8 | 9.7 | 0.00 | 0.00 | 0.00 | 80 | 1015.8 |
| 20260507101507 | 4 | 270 | 6.4 | 8.0 | 0.00 | 0.00 | 0.00 | 80 | 1015.8 |
| 20260507101002 | 5 | 270 | 3.2 | 6.4 | 0.00 | 0.00 | 0.00 | 80 | 1016.1 |
| 20260507100505 | 5 | 270 | 4.8 | 6.4 | 0.00 | 0.00 | 0.00 | 80 | 1016.1 |
| 20260507100002 | 5 | 270 | 4.8 | 9.7 | 0.00 | 0.00 | 0.00 | 80 | 1015.8 |
| 20260507095005 | 5 | 270 | 4.8 | 8.0 | 0.00 | 0.00 | 0.00 | 81 | 1015.8 |
| 20260507094003 | 5 | 270 | 4.8 | 11.3 | 0.00 | 0.00 | 0.00 | 81 | 1015.8 |
| 20260507093505 | 5 | 270 | 4.8 | 11.3 | 0.00 | 0.00 | 0.00 | 81 | 1016.1 |
| 20260507093001 | 5 | 270 | 4.8 | 14.5 | 0.00 | 0.00 | 0.00 | 81 | 1016.1 |
| 20260507092504 | 5 | 270 | 8.0 | 14.5 | 0.00 | 0.00 | 0.00 | 81 | 1016.1 |
| 20260507091501 | 5 | 270 | 6.4 | 8.0 | 0.00 | 0.00 | 0.00 | 82 | 1016.1 |
| 20260507091004 | 5 | 270 | 4.8 | 8.0 | 0.00 | 0.00 | 0.00 | 82 | 1015.8 |
| 20260507090002 | 5 | 292 | 6.4 | 8.0 | 0.00 | 0.00 | 0.00 | 82 | 1015.8 |
| 20260507085504 | 5 | 270 | 3.2 | 8.0 | 0.00 | 0.00 | 0.00 | 82 | 1016.1 |
| 20260507084507 | 5 | 270 | 6.4 | 9.7 | 0.00 | 0.00 | 0.00 | 83 | 1015.8 |
| 20260507084004 | 5 | 270 | 4.8 | 8.0 | 0.00 | 0.00 | 0.00 | 83 | 1015.8 |
| 20260507083506 | 5 | 270 | 4.8 | 6.4 | 0.00 | 0.00 | 0.00 | 83 | 1015.8 |
| 20260507083009 | 5 | 270 | 4.8 | 8.0 | 0.00 | 0.00 | 0.00 | 83 | 1015.8 |
| 20260507082504 | 5 | 270 | 3.2 | 8.0 | 0.00 | 0.00 | 0.00 | 84 | 1015.8 |
| 20260507082006 | 5 | 270 | 4.8 | 8.0 | 0.00 | 0.00 | 0.00 | 84 | 1015.8 |
| 20260507081502 | 5 | 270 | 4.8 | 6.4 | 0.00 | 0.00 | 0.00 | 85 | 1015.8 |
| 20260507081004 | 5 | 270 | 4.8 | 6.4 | 0.00 | 0.00 | 0.00 | 86 | 1015.8 |
| 20260507080008 | 5 | 270 | 4.8 | 6.4 | 0.00 | 0.00 | 0.00 | 87 | 1015.8 |
| 20260507075504 | 5 | 270 | 3.2 | 6.4 | 0.00 | 0.03 | 0.00 | 87 | 1015.8 |
| 20260507074506 | 5 | 270 | 3.2 | 6.4 | 0.00 | 0.03 | 0.00 | 87 | 1015.8 |
| 20260507074002 | 5 | 270 | 3.2 | 6.4 | 0.00 | 0.03 | 0.00 | 88 | 1015.8 |
| 20260507073505 | 5 | 270 | 4.8 | 6.4 | 0.00 | 0.03 | 0.00 | 88 | 1015.8 |
| 20260507073007 | 5 | 270 | 4.8 | 6.4 | 0.00 | 0.05 | 0.00 | 88 | 1015.8 |
| 20260507072504 | 5 | 270 | 4.8 | 6.4 | 0.00 | 0.05 | 0.00 | 89 | 1015.8 |
| 20260507071502 | 5 | 247 | 3.2 | 8.0 | 0.00 | 0.10 | 0.00 | 90 | 1015.8 |
| 20260507071005 | 5 | 270 | 4.8 | 8.0 | 0.00 | 0.13 | 0.00 | 90 | 1015.8 |
| 20260507070507 | 5 | 270 | 3.2 | 6.4 | 0.00 | 0.15 | 0.00 | 91 | 1015.8 |
| 20260507070009 | 5 | 270 | 3.2 | 4.8 | 0.00 | 0.15 | 0.00 | 91 | 1015.8 |
| 20260507065507 | 5 | 270 | 3.2 | 4.8 | 0.00 | 0.15 | 0.00 | 91 | 1015.8 |
| 20260507065004 | 5 | 270 | 1.6 | 4.8 | 0.00 | 0.15 | 0.00 | 91 | 1015.8 |
| 20260507064506 | 5 | 270 | 1.6 | 4.8 | 0.00 | 0.15 | 0.00 | 92 | 1015.8 |
| 20260507064002 | 5 | 270 | 3.2 | 4.8 | 0.00 | 0.15 | 0.00 | 92 | 1015.8 |
| 20260507063505 | 5 | 270 | 3.2 | 4.8 | 0.00 | 0.15 | 0.00 | 92 | 1015.8 |
| 20260507063007 | 5 | 270 | 3.2 | 4.8 | 0.00 | 0.15 | 0.00 | 92 | 1015.8 |
| 20260507062504 | 5 | 270 | 1.6 | 3.2 | 0.00 | 0.15 | 0.00 | 92 | 1015.8 |
| 20260507062005 | 4 | 270 | 0.0 | 0.0 | 0.00 | 0.15 | 0.00 | 92 | 1016.1 |
| 20260507061507 | 4 | 270 | 0.0 | 0.0 | 0.00 | 0.15 | 0.00 | 92 | 1016.1 |
| 20260507061004 | 4 | 270 | 0.0 | 0.0 | 0.00 | 0.18 | 0.00 | 91 | 1016.1 |
| 20260507060007 | 3 | 270 | 0.0 | 0.0 | 0.00 | 0.18 | 0.00 | 90 | 1015.8 |
| 20260507055504 | 4 | 270 | 0.0 | 0.0 | 0.00 | 0.20 | 0.00 | 90 | 1016.1 |
| 20260507054506 | 4 | 270 | 0.0 | 0.0 | 0.00 | 0.25 | 0.00 | 90 | 1015.8 |
| 20260507054002 | 5 | 270 | 0.0 | 0.0 | 0.00 | 0.25 | 0.00 | 90 | 1015.8 |
| 20260507053505 | 5 | 270 | 0.0 | 0.0 | 0.00 | 0.28 | 0.00 | 90 | 1016.1 |
| 20260507053007 | 5 | 270 | 0.0 | 0.0 | 0.00 | 0.28 | 0.00 | 90 | 1016.1 |
| 20260507052504 | 5 | 270 | 0.0 | 0.0 | 0.00 | 0.30 | 0.00 | 89 | 1016.1 |
| 20260507051502 | 5 | 270 | 0.0 | 0.0 | 0.00 | 0.33 | 0.00 | 89 | 1016.1 |
| 20260507051004 | 5 | 270 | 0.0 | 0.0 | 0.00 | 0.36 | 0.00 | 89 | 1016.1 |
| 20260507045503 | 5 | 270 | 0.0 | 0.0 | 0.00 | 0.48 | 0.00 | 90 | 1016.1 |
| 20260507045005 | 5 | 270 | 0.0 | 0.0 | 0.00 | 0.53 | 0.00 | 90 | 1016.1 |
| 20260507044507 | 5 | 270 | 0.0 | 0.0 | 0.00 | 0.58 | 0.00 | 90 | 1016.1 |
| 20260507043505 | 6 | 270 | 0.0 | 0.0 | 0.00 | 0.74 | 0.00 | 90 | 1015.8 |
| 20260507043002 | 6 | 270 | 0.0 | 0.0 | 0.00 | 0.81 | 0.00 | 89 | 1015.8 |
| 20260507042504 | 6 | 270 | 0.0 | 0.0 | 0.00 | 0.84 | 0.00 | 89 | 1016.1 |
| 20260507042006 | 6 | 270 | 0.0 | 0.0 | 0.00 | 0.89 | 0.00 | 89 | 1016.1 |
| 20260507041502 | 6 | 270 | 0.0 | 0.0 | 0.00 | 0.94 | 0.00 | 88 | 1016.1 |
| 20260507041004 | 6 | 270 | 0.0 | 0.0 | 0.00 | 0.97 | 0.00 | 88 | 1015.8 |
| 20260507040505 | 6 | 270 | 0.0 | 0.0 | 0.00 | 0.99 | 0.00 | 88 | 1015.8 |
| 20260507035503 | 6 | 270 | 0.0 | 0.0 | 0.00 | 1.04 | 1.02 | 86 | 1016.1 |
| 20260507035005 | 6 | 270 | 0.0 | 0.0 | 0.00 | 1.04 | 1.02 | 86 | 1016.1 |
| 20260507034506 | 6 | 270 | 0.0 | 0.0 | 0.00 | 1.07 | 1.02 | 85 | 1015.8 |
| 20260507034003 | 6 | 270 | 0.0 | 0.0 | 0.00 | 1.12 | 1.02 | 84 | 1016.1 |
| 20260507033506 | 6 | 270 | 0.0 | 0.0 | 0.00 | 1.22 | 1.02 | 84 | 1015.8 |
| 20260507033003 | 7 | 270 | 0.0 | 0.0 | 0.00 | 1.27 | 1.02 | 83 | 1015.8 |
| 20260507032505 | 7 | 270 | 0.0 | 0.0 | 0.00 | 1.30 | 1.02 | 82 | 1015.8 |
| 20260507032008 | 7 | 270 | 0.0 | 0.0 | 0.00 | 1.32 | 1.02 | 81 | 1015.8 |
| 20260507031503 | 7 | 270 | 0.0 | 0.0 | 0.00 | 1.32 | 1.02 | 81 | 1016.1 |
| 20260507031006 | 7 | 270 | 0.0 | 0.0 | 0.00 | 1.32 | 1.02 | 81 | 1016.1 |
| 20260507030502 | 7 | 270 | 0.0 | 0.0 | 0.00 | 1.32 | 1.02 | 81 | 1016.1 |
| 20260507030004 | 8 | 270 | 0.0 | 0.0 | 0.00 | 1.32 | 1.02 | 81 | 1016.1 |
| 20260507025505 | 8 | 270 | 0.0 | 0.0 | 0.00 | 1.32 | 1.02 | 80 | 1016.1 |
| 20260507025008 | 8 | 270 | 0.0 | 0.0 | 0.00 | 1.32 | 1.02 | 80 | 1016.1 |
| 20260507024504 | 8 | 270 | 0.0 | 0.0 | 0.00 | 1.32 | 1.02 | 79 | 1016.1 |
| 20260507024007 | 8 | 270 | 0.0 | 0.0 | 0.00 | 1.32 | 1.02 | 78 | 1016.1 |
| 20260507023505 | 8 | 270 | 0.0 | 0.0 | 0.00 | 1.35 | 1.02 | 78 | 1016.1 |
| 20260507023008 | 8 | 270 | 0.0 | 0.0 | 0.00 | 1.35 | 1.02 | 77 | 1016.1 |
| 20260507022507 | 8 | 270 | 0.0 | 0.0 | 0.00 | 1.35 | 1.02 | 77 | 1016.1 |
| 20260507022004 | 8 | 270 | 0.0 | 0.0 | 0.00 | 1.37 | 1.02 | 77 | 1016.1 |
| 20260507021507 | 8 | 270 | 0.0 | 0.0 | 0.00 | 1.37 | 1.02 | 76 | 1016.1 |
| 20260507021004 | 8 | 270 | 0.0 | 0.0 | 0.00 | 1.42 | 1.02 | 76 | 1016.1 |
| 20260507020507 | 8 | 270 | 0.0 | 0.0 | 0.00 | 1.45 | 1.02 | 76 | 1015.8 |
| 20260507015502 | 8 | 270 | 0.0 | 0.0 | 0.00 | 1.50 | 1.02 | 76 | 1015.8 |
| 20260507015002 | 8 | 270 | 0.0 | 0.0 | 0.00 | 1.55 | 1.02 | 74 | 1015.8 |
| 20260507014511 | 8 | 270 | 0.0 | 0.0 | 0.00 | 1.60 | 1.02 | 72 | 1015.8 |
| 20260507013506 | 8 | 270 | 0.0 | 0.0 | 0.00 | 1.68 | 1.02 | 70 | 1015.4 |
| 20260507013009 | 8 | 270 | 0.0 | 0.0 | 0.00 | 1.68 | 1.02 | 69 | 1015.4 |
| 20260507012503 | 9 | 270 | 0.0 | 0.0 | 0.00 | 1.68 | 1.02 | 67 | 1015.4 |
| 20260507011506 | 10 | 270 | 0.0 | 0.0 | 0.00 | 1.70 | 1.02 | 66 | 1015.4 |
| 20260507010504 | 10 | 270 | 0.0 | 0.0 | 0.00 | 1.75 | 1.02 | 64 | 1015.4 |
| 20260507010006 | 11 | 270 | 0.0 | 3.2 | 0.00 | 1.78 | 1.02 | 63 | 1015.4 |
| 20260507005503 | 11 | 270 | 0.0 | 3.2 | 0.00 | 1.85 | 1.02 | 63 | 1015.4 |
| 20260507005005 | 11 | 270 | 0.0 | 3.2 | 0.00 | 1.88 | 1.02 | 62 | 1015.4 |
| 20260507004012 | 11 | 270 | 0.0 | 8.0 | 0.00 | 1.98 | 1.02 | 60 | 1015.4 |
| 20260507003504 | 11 | 292 | 3.2 | 8.0 | 0.00 | 2.01 | 1.02 | 60 | 1015.1 |
| 20260507003007 | 11 | 292 | 3.2 | 8.0 | 0.00 | 2.06 | 1.02 | 59 | 1015.1 |
| 20260507002506 | 11 | 292 | 4.8 | 8.0 | 0.00 | 2.11 | 1.02 | 59 | 1015.1 |
| 20260507002008 | 12 | 292 | 4.8 | 6.4 | 0.00 | 2.18 | 1.02 | 58 | 1015.1 |
| 20260507001505 | 12 | 315 | 1.6 | 9.7 | 0.00 | 2.26 | 1.02 | 58 | 1014.8 |
| 20260507001001 | 12 | 315 | 4.8 | 9.7 | 0.00 | 2.34 | 1.02 | 57 | 1014.8 |
| 20260507000505 | 12 | 270 | 3.2 | 9.7 | 0.00 | 2.44 | 1.02 | 57 | 1014.8 |
| 20260507000007 | 12 | 315 | 8.0 | 12.9 | 0.00 | 2.57 | 1.02 | 57 | 1014.8 |
| 20260506235507 | 12 | 315 | 4.8 | 12.9 | 0.00 | 2.79 | 1.02 | 56 | 1014.8 |
| 20260506234003 | 12 | 360 | 4.8 | 9.7 | 0.00 | 3.30 | 1.02 | 55 | 1014.8 |
| 20260506233506 | 12 | 270 | 8.0 | 9.7 | 0.00 | 3.35 | 1.02 | 55 | 1014.8 |
| 20260506232505 | 12 | 337 | 6.4 | 12.9 | 0.00 | 3.45 | 1.02 | 55 | 1014.8 |
| 20260506232001 | 12 | 292 | 6.4 | 11.3 | 0.00 | 3.48 | 1.02 | 55 | 1014.8 |
| 20260506231505 | 12 | 270 | 4.8 | 14.5 | 0.00 | 3.51 | 1.02 | 54 | 1014.8 |
| 20260506231007 | 12 | 292 | 6.4 | 14.5 | 0.00 | 3.53 | 1.02 | 53 | 1014.8 |
| 20260506230503 | 12 | 315 | 3.2 | 14.5 | 0.00 | 3.56 | 1.02 | 53 | 1014.8 |
| 20260506230006 | 12 | 270 | 9.7 | 14.5 | 0.00 | 3.58 | 1.02 | 54 | 1014.8 |
| 20260506225506 | 12 | 270 | 4.8 | 11.3 | 0.00 | 3.61 | 1.02 | 54 | 1014.8 |
| 20260506225003 | 12 | 315 | 4.8 | 8.0 | 0.00 | 3.66 | 1.02 | 53 | 1014.8 |
| 20260506224506 | 12 | 360 | 6.4 | 12.9 | 0.00 | 3.71 | 1.02 | 53 | 1014.8 |
| 20260506224003 | 13 | 292 | 8.0 | 12.9 | 0.00 | 3.78 | 1.02 | 52 | 1015.1 |
| 20260506223506 | 13 | 292 | 1.6 | 11.3 | 0.00 | 3.84 | 1.02 | 52 | 1015.1 |
| 20260506223003 | 13 | 315 | 6.4 | 12.9 | 0.00 | 3.89 | 1.02 | 52 | 1015.1 |
| 20260506222506 | 13 | 292 | 6.4 | 12.9 | 0.00 | 3.94 | 1.02 | 53 | 1015.1 |
| 20260506222003 | 13 | 292 | 8.0 | 12.9 | 0.00 | 3.99 | 1.02 | 54 | 1014.8 |
| 20260506221506 | 12 | 202 | 4.8 | 14.5 | 0.00 | 4.01 | 1.02 | 56 | 1015.1 |
| 20260506221003 | 12 | 270 | 6.4 | 14.5 | 0.00 | 4.04 | 1.02 | 56 | 1015.1 |
| 20260506220505 | 12 | 270 | 9.7 | 14.5 | 0.00 | 4.04 | 1.02 | 56 | 1015.1 |
| 20260506220002 | 12 | 247 | 11.3 | 16.1 | 0.00 | 4.04 | 1.02 | 56 | 1015.1 |
| 20260506215504 | 12 | 247 | 6.4 | 16.1 | 0.00 | 4.04 | 1.02 | 56 | 1014.8 |
| 20260506215007 | 12 | 292 | 8.0 | 11.3 | 0.00 | 4.04 | 1.02 | 57 | 1015.1 |
| 20260506214503 | 12 | 270 | 6.4 | 12.9 | 0.00 | 4.04 | 1.02 | 56 | 1014.8 |
| 20260506214006 | 12 | 292 | 4.8 | 12.9 | 0.00 | 4.04 | 1.02 | 56 | 1014.8 |
| 20260506213503 | 12 | 270 | 6.4 | 12.9 | 0.00 | 4.04 | 1.02 | 55 | 1014.8 |
| 20260506213005 | 12 | 270 | 12.9 | 17.7 | 0.00 | 4.04 | 1.02 | 54 | 1014.8 |
| 20260506212502 | 13 | 270 | 3.2 | 12.9 | 0.00 | 4.04 | 1.02 | 53 | 1014.8 |
| 20260506212005 | 12 | 315 | 8.0 | 12.9 | 0.00 | 4.04 | 1.02 | 53 | 1014.8 |
| 20260506211508 | 12 | 292 | 9.7 | 19.3 | 0.00 | 4.04 | 1.02 | 53 | 1014.8 |
| 20260506211004 | 12 | 270 | 11.3 | 19.3 | 0.00 | 4.04 | 1.02 | 53 | 1014.8 |
| 20260506210507 | 12 | 292 | 14.5 | 19.3 | 0.00 | 4.04 | 1.02 | 53 | 1014.8 |
| 20260506210004 | 12 | 270 | 9.7 | 17.7 | 0.00 | 4.04 | 1.02 | 53 | 1014.8 |
| 20260506204004 | 12 | 270 | 6.4 | 14.5 | 0.00 | 4.04 | 1.02 | 53 | 1014.8 |
| 20260506203507 | 12 | 270 | 11.3 | 14.5 | 0.00 | 4.04 | 1.02 | 54 | 1014.8 |
| 20260506203004 | 12 | 292 | 4.8 | 14.5 | 0.00 | 4.04 | 1.02 | 54 | 1014.8 |
| 20260506202506 | 12 | 270 | 8.0 | 14.5 | 0.00 | 4.04 | 1.02 | 53 | 1014.8 |
| 20260506201505 | 12 | 292 | 6.4 | 14.5 | 0.00 | 4.04 | 1.02 | 53 | 1014.8 |
| 20260506201008 | 12 | 337 | 3.2 | 14.5 | 0.00 | 4.06 | 1.02 | 53 | 1014.8 |
| 20260506200505 | 12 | 315 | 6.4 | 14.5 | 0.00 | 4.06 | 1.02 | 52 | 1014.8 |
| 20260506200007 | 12 | 292 | 6.4 | 16.1 | 0.00 | 4.06 | 1.02 | 52 | 1014.8 |
| 20260506195507 | 12 | 292 | 8.0 | 16.1 | 0.00 | 4.06 | 1.02 | 51 | 1014.8 |
| 20260506195004 | 12 | 315 | 8.0 | 16.1 | 0.00 | 4.06 | 1.02 | 51 | 1014.8 |
| 20260506194506 | 12 | 292 | 11.3 | 14.5 | 0.00 | 4.09 | 1.02 | 52 | 1014.8 |
| 20260506194003 | 12 | 337 | 9.7 | 12.9 | 0.00 | 4.09 | 1.02 | 53 | 1014.8 |
| 20260506193506 | 13 | 337 | 8.0 | 12.9 | 0.00 | 4.14 | 1.02 | 54 | 1014.4 |
| 20260506193003 | 13 | 337 | 9.7 | 12.9 | 0.00 | 4.17 | 1.02 | 55 | 1014.4 |
| 20260506192002 | 12 | 337 | 4.8 | 11.3 | 0.00 | 4.24 | 1.02 | 55 | 1014.4 |
| 20260506191505 | 12 | 292 | 6.4 | 14.5 | 0.00 | 4.32 | 1.02 | 54 | 1014.4 |
| 20260506191008 | 12 | 292 | 8.0 | 14.5 | 0.00 | 4.37 | 1.02 | 55 | 1014.8 |
| 20260506190005 | 12 | 22 | 3.2 | 16.1 | 0.00 | 4.37 | 1.02 | 55 | 1014.8 |
| 20260506185533 | 12 | 360 | 8.0 | 16.1 | 0.00 | 4.37 | 1.02 | 55 | 1014.8 |
| 20260506185009 | 12 | 315 | 6.4 | 16.1 | 0.00 | 4.37 | 1.02 | 55 | 1014.8 |
| 20260506184505 | 13 | 292 | 4.8 | 20.9 | 0.00 | 4.37 | 1.02 | 55 | 1014.8 |
| 20260506184008 | 13 | 315 | 3.2 | 20.9 | 0.00 | 4.37 | 1.02 | 55 | 1014.8 |
| 20260506183504 | 13 | 292 | 8.0 | 20.9 | 0.00 | 4.37 | 1.02 | 53 | 1014.8 |
| 20260506183006 | 13 | 292 | 9.7 | 17.7 | 0.00 | 4.37 | 1.02 | 52 | 1014.8 |
| 20260506182503 | 13 | 360 | 8.0 | 11.3 | 0.00 | 4.37 | 1.02 | 52 | 1014.8 |
| 20260506182005 | 13 | 360 | 6.4 | 11.3 | 0.00 | 4.37 | 1.02 | 53 | 1014.4 |
| 20260506181508 | 12 | 292 | 6.4 | 17.7 | 0.00 | 4.37 | 1.02 | 54 | 1014.4 |
| 20260506181004 | 13 | 315 | 8.0 | 17.7 | 0.00 | 4.37 | 1.02 | 55 | 1014.4 |
| 20260506180507 | 12 | 292 | 6.4 | 12.9 | 0.00 | 4.37 | 1.02 | 54 | 1014.4 |
| 20260506180003 | 13 | 270 | 8.0 | 16.1 | 0.00 | 4.37 | 1.02 | 55 | 1014.4 |
| 20260506175505 | 13 | 337 | 4.8 | 12.9 | 0.00 | 4.37 | 1.02 | 55 | 1014.8 |
| 20260506175007 | 12 | 22 | 4.8 | 12.9 | 0.00 | 4.37 | 1.02 | 55 | 1014.8 |
| 20260506174005 | 13 | 337 | 6.4 | 16.1 | 0.00 | 4.37 | 1.02 | 56 | 1014.8 |
| 20260506173004 | 12 | 22 | 3.2 | 9.7 | 0.00 | 4.37 | 1.02 | 56 | 1014.8 |
| 20260506172506 | 12 | 360 | 1.6 | 9.7 | 0.00 | 4.37 | 1.02 | 55 | 1014.8 |
| 20260506172003 | 12 | 270 | 3.2 | 9.7 | 0.00 | 4.37 | 1.02 | 55 | 1015.1 |
| 20260506171505 | 13 | 315 | 4.8 | 16.1 | 0.00 | 4.37 | 1.02 | 56 | 1014.8 |
| 20260506171002 | 13 | 315 | 9.7 | 16.1 | 0.00 | 4.37 | 1.02 | 56 | 1014.8 |
| 20260506170505 | 13 | 202 | 0.0 | 8.0 | 0.00 | 4.37 | 1.02 | 56 | 1014.8 |
| 20260506165507 | 13 | 360 | 6.4 | 12.9 | 0.00 | 4.37 | 1.02 | 56 | 1014.8 |
| 20260506165003 | 13 | 270 | 1.6 | 11.3 | 0.00 | 4.37 | 1.02 | 56 | 1014.8 |
| 20260506164506 | 13 | 360 | 8.0 | 14.5 | 0.00 | 4.37 | 1.02 | 56 | 1014.8 |
| 20260506164002 | 12 | 360 | 6.4 | 14.5 | 0.00 | 4.37 | 1.02 | 56 | 1014.4 |
| 20260506163505 | 12 | 337 | 6.4 | 14.5 | 0.00 | 4.37 | 1.02 | 57 | 1014.8 |
| 20260506163008 | 12 | 360 | 8.0 | 14.5 | 0.00 | 4.37 | 1.02 | 58 | 1014.8 |
| 20260506162504 | 12 | 360 | 4.8 | 14.5 | 0.00 | 4.37 | 1.02 | 59 | 1014.4 |
| 20260506162007 | 12 | 292 | 6.4 | 14.5 | 0.00 | 4.37 | 1.02 | 58 | 1014.4 |
| 20260506161502 | 12 | 360 | 6.4 | 12.9 | 0.00 | 4.37 | 1.02 | 58 | 1014.8 |
| 20260506161005 | 12 | 22 | 3.2 | 9.7 | 0.00 | 4.37 | 1.02 | 58 | 1014.8 |
| 20260506160502 | 12 | 337 | 3.2 | 9.7 | 0.00 | 4.37 | 1.02 | 59 | 1014.8 |
| 20260506160005 | 12 | 337 | 6.4 | 12.9 | 0.00 | 4.37 | 1.02 | 60 | 1015.1 |
| 20260506155508 | 12 | 337 | 8.0 | 12.9 | 0.00 | 4.37 | 1.02 | 60 | 1014.8 |
| 20260506155004 | 12 | 337 | 8.0 | 11.3 | 0.00 | 4.37 | 1.02 | 60 | 1014.8 |
| 20260506154507 | 12 | 22 | 3.2 | 17.7 | 0.00 | 4.37 | 1.02 | 60 | 1014.4 |
| 20260506154002 | 12 | 360 | 9.7 | 17.7 | 0.00 | 4.37 | 1.02 | 61 | 1014.8 |
| 20260506153505 | 12 | 270 | 9.7 | 16.1 | 0.00 | 4.37 | 1.02 | 63 | 1014.4 |
| 20260506153008 | 11 | 315 | 6.4 | 22.5 | 0.00 | 4.37 | 1.02 | 63 | 1014.4 |
| 20260506152504 | 11 | 360 | 6.4 | 22.5 | 0.00 | 4.37 | 1.02 | 64 | 1014.8 |
| 20260506151508 | 11 | 360 | 8.0 | 16.1 | 0.00 | 4.37 | 1.02 | 65 | 1014.4 |
| 20260506150007 | 11 | 360 | 9.7 | 20.9 | 0.00 | 4.37 | 1.02 | 66 | 1014.1 |
| 20260506145504 | 11 | 292 | 3.2 | 17.7 | 0.00 | 4.37 | 1.02 | 67 | 1014.1 |
| 20260506145006 | 11 | 315 | 9.7 | 17.7 | 0.00 | 4.37 | 1.02 | 68 | 1013.8 |